San Jose, Costa Rica

3:23 AM CST on February 18, 2018 (GMT -0600)
Juan Santamaria International

Weather History for MROC - January, 2008

Change the Weather History Date:

Wednesday, January 2, 2008

  Actual Average Record
Temperature  
Mean Temperature 72 °F -  
Max Temperature 79 °F 80 °F 86 °F (2002)
Min Temperature 66 °F 63 °F 62 °F (1997)
Cooling Degree Days 8    
Growing Degree Days 22 (Base 50)    
Moisture  
Dew Point 56 °F    
Average Humidity 57    
Maximum Humidity 83    
Minimum Humidity 43    
Precipitation  
Precipitation 0.00 in 0.01 in - ()
Sea Level Pressure  
Sea Level Pressure 29.96 in    
Wind  
Wind Speed 16 mph ()    
Max Wind Speed 31 mph    
Max Gust Speed 43 mph    
Visibility 7.4 miles    
Events Rain    
Averages and records for this station are not official NWS values.
T = Trace of Precipitation, MM = Missing Value Source: Averaged Metar Reports

Daily Weather History Graph

Daily Weather History Graph

Search for Another Location

Airport or City:

Trip Planner

Search our weather history database for the weather conditions in past years. The results will help you decide how hot, cold, wet, or windy it might be!

Date:

Astronomy

Jan. 02, 2008 Rise Set
Actual Time 5:54 AM CST 5:27 PM CST
Civil Twilight 5:31 AM CST 5:50 PM CST
Nautical Twilight 5:05 AM CST 6:16 PM CST
Astronomical Twilight 4:38 AM CST 6:42 PM CST
Moon 12:59 AM CST (1/2) 12:53 PM CST (1/2)
Length of Visible Light 12h 18m
Length of Day
11h 33m
Waning Crescent, 28% of the Moon is Illuminated
Jan 2
Waning Crescent
Jan 8
New
Jan 15
First Quarter
Jan 22
Full
Jan 29
Last Quarter

Hourly Weather History & Observations

Time (CST) Temp. Dew Point Humidity Pressure Visibility Wind Dir Wind Speed Gust Speed Precip Events Conditions
12:00 AM 68.0 °F 53.6 °F 60% 29.97 in - East 16.1 mph - N/A   Clear
2:00 AM 68.0 °F 51.8 °F 56% 29.93 in - East 17.3 mph - N/A   Clear
3:00 AM 66.2 °F 51.8 °F 60% 29.92 in - East 19.6 mph - N/A   Clear
4:00 AM 68.0 °F 62.6 °F 83% 29.92 in - ENE 20.7 mph - N/A   Clear
5:00 AM 68.0 °F 51.8 °F 56% 29.95 in - East 12.7 mph - N/A   Clear
6:00 AM 69 °F 52 °F 45% 29.85 in 12 mi ENE 13.8 mph - -  
6:00 AM 68.0 °F 51.8 °F 56% 29.96 in - ENE 13.8 mph - N/A   Clear
7:00 AM 69.8 °F 53.6 °F 56% 29.98 in 6.2 mi East 13.8 mph 25.3 mph N/A   Unknown
8:00 AM 73.4 °F 51.8 °F 47% 30.00 in 6.2 mi East 17.3 mph 28.8 mph N/A   Unknown
9:00 AM 75.2 °F 55.4 °F 50% 30.01 in 6.2 mi East 19.6 mph - N/A   Unknown
10:00 AM 77.0 °F 55.4 °F 47% 30.00 in 6.2 mi East 18.4 mph - N/A   Unknown
11:00 AM 77.0 °F 59.0 °F 54% 29.98 in 6.2 mi East 20.7 mph 32.2 mph N/A   Partly Cloudy
11:38 AM 77.0 °F 60.8 °F 57% 29.96 in - East 24.2 mph 36.8 mph N/A   Partly Cloudy
12:00 PM 79 °F 61 °F 44% 29.83 in 12 mi East 16.1 mph - -   Partly Cloudy
12:00 PM 78.8 °F 60.8 °F 54% 29.96 in 6.2 mi East 16.1 mph 27.6 mph N/A   Scattered Clouds
1:00 PM 75.2 °F 59.0 °F 57% 29.93 in 6.2 mi East 20.7 mph 32.2 mph N/A   Scattered Clouds
2:00 PM - - N/A% - 6.2 mi NE 20.7 mph - N/A   Partly Cloudy
3:00 PM 75.2 °F 51.8 °F 44% 29.92 in 6.2 mi NE 31.1 mph 42.6 mph N/A   Partly Cloudy
4:00 PM 73.4 °F 53.6 °F 50% 29.93 in 6.2 mi ENE 27.6 mph 39.1 mph N/A   Partly Cloudy
5:00 PM 71.6 °F 53.6 °F 53% 29.95 in 6.2 mi ENE 20.7 mph 32.2 mph N/A   Partly Cloudy
6:00 PM 70 °F 53 °F 43% 29.86 in 12 mi ENE 19.6 mph - -  
6:00 PM 69.8 °F 51.8 °F 53% 29.97 in - ENE 19.6 mph 34.5 mph N/A   Clear
7:00 PM 69.8 °F 53.6 °F 56% 29.99 in - East 17.3 mph 28.8 mph N/A   Clear
8:00 PM 68.0 °F 55.4 °F 64% 30.02 in - East 16.1 mph - N/A   Clear
8:40 PM 68.0 °F 57.2 °F 68% 30.04 in 5.6 mi East 17.3 mph 28.8 mph N/A Rain Light Rain
9:00 PM 67 °F 58 °F 64% 29.91 in 12 mi Calm Calm - -   Scattered Clouds
9:00 PM 68.0 °F 57.2 °F 68% 30.04 in 6.2 mi East 19.6 mph - N/A   Light Drizzle
10:00 PM 66.2 °F 59.0 °F 78% 30.03 in 6.2 mi East 16.1 mph 28.8 mph N/A   Light Drizzle
11:00 PM 68.0 °F 59.0 °F 73% 30.02 in 6.2 mi East 15.0 mph - N/A   Light Drizzle